Weather History for Lawrenceville, IL

Change the Weather History Date:

Saturday, July 5, 2014

  Actual Average Record
Temperature  
Mean Temperature 69 °F 78 °F  
Max Temperature 83 °F 88 °F 105 °F (2012)
Min Temperature 55 °F 67 °F 55 °F (1997)
Degree Days  
Heating Degree Days 0 0  
Month to date heating degree days 0 0  
Since 1 June heating degree days 0 7  
Since 1 July heating degree days 0 0  
Cooling Degree Days 4 13  
Month to date cooling degree days 33 65  
Year to date cooling degree days 547 494  
Since 1 June cooling degree days 356 355  
Growing Degree Days 18 (Base 50)    
Moisture  
Dew Point 56 °F    
Average Humidity 65    
Maximum Humidity 93    
Minimum Humidity 37    
Precipitation  
Precipitation 0.00 in 0.14 in 1.50 in (2000)
Month to date precipitation 0.05 0.66  
Year to date precipitation 19.60 22.20  
Sea Level Pressure  
Sea Level Pressure 30.21 in    
Wind  
Wind Speed 5 mph (South)    
Max Wind Speed 13 mph    
Max Gust Speed 18 mph    
Visibility 10 miles    
Events      
T = Trace of Precipitation, MM = Missing Value Source: NWS Daily Summary

Daily Weather History Graph

Daily Weather History Graph

Search for Another Location

Airport:

Trip Planner

Search our weather history database for the weather conditions in past years. The results will help you decide how hot, cold, wet, or windy it might be!

Date:

Astronomy

Jul. 05, 2014 Rise Set
Actual Time 5:31 AM CDT 8:18 PM CDT
Civil Twilight 4:59 AM CDT 8:50 PM CDT
Nautical Twilight 4:19 AM CDT 9:29 PM CDT
Astronomical Twilight 3:34 AM CDT 10:14 PM CDT
Moon 1:20 PM CDT (7/5) 12:15 AM CDT (7/5)
Length of Visible Light 15h 50m
Length of Day
14h 47m
First Quarter, 52% of the Moon is Illuminated
Jul 5
First Quarter
Jul 12
Full
Jul 18
Last Quarter
Jul 26
New
Aug 3
First Quarter

Hourly Weather History & Observations

Time (CDT) Temp. Heat Index Dew Point Humidity Pressure Visibility Wind Dir Wind Speed Gust Speed Precip Events Conditions
12:53 AM 60.1 °F - 55.9 °F 86% 30.27 in 10.0 mi North 3.5 mph - N/A   Clear
1:53 AM 59.0 °F - 55.9 °F 90% 30.27 in 10.0 mi North 3.5 mph - N/A   Clear
2:53 AM 57.9 °F - 55.0 °F 90% 30.26 in 10.0 mi Calm Calm - N/A   Clear
3:53 AM 57.0 °F - 55.0 °F 93% 30.27 in 9.0 mi NNW 3.5 mph - N/A   Clear
4:53 AM 55.9 °F - 54.0 °F 93% 30.27 in 9.0 mi Calm Calm - N/A   Clear
5:53 AM 55.9 °F - 53.1 °F 90% 30.28 in 7.0 mi Calm Calm - N/A   Clear
6:53 AM 61.0 °F - 57.9 °F 90% 30.29 in 7.0 mi Calm Calm - N/A   Clear
7:53 AM 66.0 °F - 57.9 °F 75% 30.28 in 9.0 mi SE 4.6 mph - N/A   Clear
8:53 AM 73.0 °F - 57.0 °F 57% 30.28 in 10.0 mi South 6.9 mph - N/A   Clear
9:53 AM 77.0 °F - 55.0 °F 47% 30.29 in 10.0 mi SSE 9.2 mph - N/A   Clear
10:53 AM 79.0 °F - 53.1 °F 40% 30.26 in 10.0 mi SSE 10.4 mph 17.3 mph N/A   Clear
11:53 AM 80.1 °F 79.9 °F 53.1 °F 39% 30.24 in 10.0 mi South 8.1 mph - N/A   Clear
12:53 PM 82.0 °F 81.3 °F 54.0 °F 38% 30.23 in 10.0 mi SSW 9.2 mph - N/A   Clear
1:53 PM 82.0 °F 81.2 °F 53.1 °F 37% 30.23 in 10.0 mi SSE 6.9 mph - N/A   Clear
2:53 PM 82.9 °F 81.8 °F 53.1 °F 36% 30.19 in 10.0 mi WSW 5.8 mph - N/A   Clear
3:53 PM 82.0 °F 81.2 °F 53.1 °F 37% 30.18 in 10.0 mi South 5.8 mph - N/A   Clear
4:53 PM 81.0 °F 80.5 °F 54.0 °F 39% 30.15 in 10.0 mi South 10.4 mph - N/A   Clear
5:53 PM 80.1 °F 80.0 °F 54.0 °F 40% 30.13 in 10.0 mi South 6.9 mph - N/A   Clear
6:53 PM 75.9 °F - 57.9 °F 54% 30.11 in 7.0 mi SSE 5.8 mph - N/A   Clear
7:53 PM 75.9 °F - 57.0 °F 52% 30.12 in 10.0 mi SW 4.6 mph - N/A   Clear
8:53 PM 71.1 °F - 60.1 °F 68% 30.11 in 10.0 mi South 4.6 mph - N/A   Clear
9:53 PM 69.1 °F - 60.1 °F 73% 30.12 in 10.0 mi SSW 3.5 mph - N/A   Clear
10:53 PM 66.0 °F - 60.1 °F 81% 30.10 in 10.0 mi SSE 5.8 mph - N/A   Clear
11:53 PM 66.0 °F - 60.1 °F 81% 30.10 in 10.0 mi South 3.5 mph - N/A   Scattered Clouds